Terug naar catalogus

STARLINK-34178

ActiefCommunicatieVLEO
NORAD 64096·PAYLOAD·🇺🇸 United States

Gelanceerd May 23, 2025 vanaf Vandenberg Space Force Base

Loading…

Volgende Passages (komende 24 uur)

TLE

VersSource: CelesTrak SupGP

Epoch: Sep 15, 2026, 02:19 UTC

1 64096C 25110A   26258.09701389 -.00039920  00000+0 -12836-2 0  2588
2 64096  53.1587 226.3012 0001418  86.8691 186.7615 15.31724797    15

Volg STARLINK-34178 in realtime met AllMySat

Download on the App Store